Weather History for Augusta Bush, GA

Change the Weather History Date:

Tuesday, October 30, 2012

  Actual Average Record
Temperature  
Mean Temperature 53 °F 60 °F  
Max Temperature 61 °F 74 °F 90 °F (1984)
Min Temperature 45 °F 46 °F 22 °F (1952)
Degree Days  
Heating Degree Days 12 6  
Month to date heating degree days 75 99  
Since 1 July heating degree days 75 106  
Cooling Degree Days 0 1  
Month to date cooling degree days 84 86  
Year to date cooling degree days 2163 2070  
Growing Degree Days 3 (Base 50)    
Moisture  
Dew Point 25 °F    
Average Humidity 37    
Maximum Humidity 50    
Minimum Humidity 23    
Precipitation  
Precipitation 0.00 in 0.08 in 2.60 in (1993)
Month to date precipitation 1.36 3.18  
Year to date precipitation 30.31 37.27  
Sea Level Pressure  
Sea Level Pressure 29.64 in    
Wind  
Wind Speed 13 mph (West)    
Max Wind Speed 25 mph    
Max Gust Speed 32 mph    
Visibility 10 miles    
Events      
T = Trace of Precipitation, MM = Missing Value Source: NWS Daily Summary

Daily Weather History Graph

Daily Weather History Graph

Search for Another Location

Airport:

Trip Planner

Search our weather history database for the weather conditions in past years. The results will help you decide how hot, cold, wet, or windy it might be!

Date:

Astronomy

Oct. 30, 2012 Rise Set
Actual Time 7:45 AM EDT 6:37 PM EDT
Civil Twilight 7:19 AM EDT 7:02 PM EDT
Nautical Twilight 6:50 AM EDT 7:32 PM EDT
Astronomical Twilight 6:21 AM EDT 8:01 PM EDT
Moon 7:10 PM EDT (10/30) 8:26 AM EDT (10/30)
Length of Visible Light 11h 43m
Length of Day
10h 52m
Full, 99% of the Moon is Illuminated
Oct 30
Full
Nov 6
Last Quarter
Nov 13
New
Nov 20
First Quarter
Nov 28
Full

Hourly Weather History & Observations

Time (EDT) Temp. Windchill Dew Point Humidity Pressure Visibility Wind Dir Wind Speed Gust Speed Precip Events Conditions
12:53 AM 50.0 °F - 28.9 °F 44% 29.64 in 10.0 mi WNW 13.8 mph 24.2 mph N/A   Scattered Clouds
1:53 AM 50.0 °F - 27.0 °F 41% 29.62 in 10.0 mi West 12.7 mph 20.7 mph N/A   Mostly Cloudy
2:53 AM 48.9 °F - 25.0 °F 39% 29.61 in 10.0 mi West 10.4 mph - N/A   Scattered Clouds
3:53 AM 46.9 °F - 26.1 °F 44% 29.60 in 10.0 mi West 9.2 mph - N/A   Overcast
4:53 AM 46.9 °F - 25.0 °F 42% 29.59 in 10.0 mi West 10.4 mph - N/A   Mostly Cloudy
5:53 AM 46.0 °F 43.1 °F 26.1 °F 46% 29.60 in 10.0 mi West 5.8 mph - N/A   Scattered Clouds
6:53 AM 46.0 °F 41.4 °F 28.0 °F 50% 29.60 in 10.0 mi West 9.2 mph - N/A   Clear
7:53 AM 46.0 °F 41.4 °F 28.9 °F 51% 29.61 in 10.0 mi West 9.2 mph - N/A   Partly Cloudy
8:53 AM 48.0 °F - 30.0 °F 50% 29.61 in 10.0 mi West 12.7 mph 20.7 mph N/A   Clear
9:53 AM 50.0 °F - 28.9 °F 44% 29.62 in 10.0 mi West 15.0 mph 25.3 mph N/A   Clear
10:53 AM 52.0 °F - 28.0 °F 40% 29.63 in 10.0 mi WNW 17.3 mph 23.0 mph N/A   Clear
11:53 AM 53.1 °F - 26.1 °F 35% 29.63 in 10.0 mi West 17.3 mph 26.5 mph N/A   Clear
12:53 PM 55.9 °F - 25.0 °F 30% 29.62 in 10.0 mi West 25.3 mph 32.2 mph N/A   Clear
1:53 PM 57.9 °F - 23.0 °F 26% 29.62 in 10.0 mi West 19.6 mph 29.9 mph N/A   Clear
2:53 PM 60.1 °F - 23.0 °F 24% 29.60 in 10.0 mi West 19.6 mph 29.9 mph N/A   Clear
3:53 PM 59.0 °F - 24.1 °F 26% 29.61 in 10.0 mi West 15.0 mph 23.0 mph N/A   Clear
4:53 PM 59.0 °F - 21.9 °F 24% 29.63 in 10.0 mi WNW 19.6 mph 27.6 mph N/A   Clear
5:53 PM 57.9 °F - 23.0 °F 26% 29.65 in 10.0 mi NW 12.7 mph - N/A   Scattered Clouds
6:53 PM 55.4 °F - 21.2 °F 26% 29.68 in 10.0 mi West 12.7 mph - N/A   Partly Cloudy
7:53 PM 54.0 °F - 21.0 °F 28% 29.71 in 10.0 mi West 9.2 mph - N/A   Partly Cloudy
8:53 PM 53.1 °F - 21.0 °F 29% 29.73 in 10.0 mi West 10.4 mph - N/A   Clear
9:53 PM 51.1 °F - 21.9 °F 32% 29.75 in 10.0 mi West 9.2 mph - N/A   Clear
10:53 PM 50.0 °F - 23.0 °F 35% 29.77 in 10.0 mi West 11.5 mph - N/A   Clear
11:53 PM 50.0 °F - 21.9 °F 33% 29.76 in 10.0 mi West 10.4 mph - N/A   Clear